International Virtual Aviation Organisation

Russian Federation and Kazakhstan MCD

 

Карточка аэропорта UEEE

Внимание!
Информация на этой странице в стадии наполнения.
Если вы не увидели какой-то информации, или заметили неточность - пожалуйста сообщите нам!
Спасибо!
Команда RU-STAFF
Название аэропортаЯкутск
Название аэропорта (англ.)Yakutsk
Превышение325 ft. (99.1 m.)
Координаты62°5.5920000000002', 129°46.259999999999'
Высота перехода1000m
Эшелон переходаFL050
Коды ответчика3220-3237
Зона ОрВДЯкутск РПИ (UEEE)
Данные METARUEEE 271730Z 30003MPS CAVOK M19/M22 Q1021 R23L/490136 NOSIG RMK QFE757
Проноз погоды (TAF)UEEE 271400Z 2715/2821 29003G10MPS 9999 SCT030= UHMA 271349Z 2715/2815 35003G08MPS 9999 SCT015 TEMPO 2715/2809 03008G13MPS 5000 -SHSN BR DRSN SCT003 BKN010CB TEMPO 2809/2815 32008G13MPS 5000 BR SCT003 BKN010
NOTAMshow/hide NOTAM
AWOS   TABLE

Информация о ВПП

ВПП Длина ВПП (м.) Покрытие Курс ВПП Частота ILS
05R3400Асфальтобетон52 
23L3400Асфальтобетон232111.7

Диспетчерские позиции

Позывной Наименование органа УВД Частота
UEEE_APPЯкутск-Подход129.3
UEEE_R_APPЯкутск-Круг120.3
UEEE_TWRЯкутск-Старт120.0
UEEE_GNDЯкутск-Руление121.7



Спутниковое изображение